STARLINK-33960, 63966

Orbit data source: Space-Track

STARLINK-33960, 63966 is a payload satellite owned by SpaceX/Seattle (US) in LEO that was launched on Tue, 13 May 2025 UTC via an FALCON 9 launch vehicle from the Air Force Eastern Test Range (AFETR). Payload-class satellites include a variety of spacecraft equipped with specific instruments for various scientific and technological missions. These include communications satellites like Starlink; space stations such as the ISS; scientific satellites like the Hubble; Earth observation satellites from companies like Planet Labs, Umbra, and HawkEye 360; GPS; miniature CubeSats for education and research; and military/defense satellites.

Loading next visibility...
Identifier
63966, 2025-099Q
Orbit
LEO
Country
Flag of USUS
Related business
Manufacturer
SpaceX/Seattle
Mission
Operational Commercial Communications
Bus & Motor
STARLINK V2MO, Unknown motor
Mass
575 kg wet, ~530 kg dry
Launch date (UTC)
2025-05-13 (11 months ago)
Launch vehicle
FALCON 9
Launch site
Air Force Eastern Test Range (AFETR)
Object type
Payload
Rocket body
Debris
Shape & HBR
Box + 2 Pan, 17.7 m
Radar Cross Section
36.964 m², Large (>1 m²)

Expand to show TLE details & history
Last TLE update: 16 hours ago

TLE from 16 hours ago
0 STARLINK-33960
1 63966U 25099Q   26093.82805593  .00056717  00000-0  20545-2 0  9999
2 63966  43.0025  34.0130 0000878  19.8940 340.1946 15.27585071 51184
Epoch: 2026-04-03T19:52Z
TLE epoch observation values (Epoch: 2026-04-03T19:52:24.032Z)
Latitude
Longitude
-96.24372°
Altitude
482.243 km
Speed
7.626 km/s
True Right ascension
02h 16m 03s
True Declination
0° 00' 00"
Sunlit
Object was in daylight at epoch
Visualization orbit readout
Latitude
Unknown
Longitude
Unknown
Altitude
Unknown
Speed
Unknown
Apparent Right ascension
Unknown
Apparent Declination
Unknown
Sunlit
N/A
Visualization observer readout
Local Sidereal Time
18:08:39
Azimuth
Unknown
Elevation
Unknown
Doppler factor
Unknown
Orbital elements
Apogee altitude
485.581 km
Perigee altitude
484.376 km
Semi-major axis
6,863.116 km
Eccentricity
0.00009
Inclination
43.0025°
RAAN
34.013°
Arg. of periapsis
19.894°
True anomaly
340.19119°
Mean anomaly
340.1946°
Eccentric anomaly
340.1929°
Mean motion
3.81734 °/min
Orbital period
94.31 mins
BSTAR
0.0020545
Loading maneuver chart data...
Computing Atmospheric mass density...
Loading historical data...
Loading historical data...
Loading historical data...
Loading historical data...
Loading historical data...
Loading historical data...
Loading historical data...

Documentation

Showing up to 5 results
|